Location: Del Amo
(33.8464°N, 118.2104°W)
Time: 15:03:59
(UTC+00:00)

Courier 1B Rocket - Visible Passes

Search period start: 13 September 2024 00:00
Search period end: 23 September 2024 00:00
Orbit: 920 x 1201 km, 28.2° (Epoch: 12 September)

Date Brightness Start Highest point End Pass type
(mag) Time Alt. Az. Time Alt. Az. Time Alt. Az.
13 Sep 5.7 04:04:12 10° W 04:11:20 48° SSW 04:12:39 44° SSE visible
13 Sep 7.7 05:58:26 10° WSW 05:59:00 12° WSW 05:59:00 12° WSW visible
14 Sep 5.7 03:02:59 10° W 03:10:02 53° S 03:15:07 21° ESE visible
14 Sep 6.6 04:56:45 10° W 05:01:28 29° SW 05:01:28 29° SW visible
15 Sep 6.0 03:55:19 10° W 04:02:07 40° SSW 04:03:57 35° SSE visible
15 Sep 7.7 05:50:12 10° WSW 05:50:18 10° WSW 05:50:18 10° WSW visible
16 Sep 5.9 02:54:03 10° W 03:00:52 47° SSW 03:06:29 17° SE visible
16 Sep 6.8 04:48:11 10° WSW 04:52:50 24° SW 04:52:50 24° SW visible
17 Sep 6.4 03:46:35 10° W 03:52:53 32° SSW 03:55:24 26° SSE visible
18 Sep 6.2 02:45:14 10° W 02:51:41 39° SSW 02:58:01 12° SE visible
18 Sep 7.1 04:40:04 10° WSW 04:44:22 18° SSW 04:44:22 18° SSW visible
19 Sep 6.8 03:38:06 10° WSW 03:43:37 24° SSW 03:47:02 17° S visible
20 Sep 6.6 02:36:34 10° WSW 02:42:30 30° SSW 02:48:46 10° SE visible
20 Sep 7.4 04:33:18 10° SW 04:35:26 11° SSW 04:36:08 11° SSW visible
21 Sep 7.2 03:30:08 10° WSW 03:34:21 17° SSW 03:38:43 10° S visible
22 Sep 7.0 02:28:10 10° WSW 02:33:16 22° SSW 02:38:38 10° SSE visible
